Location: Crescent
(42.8242°N, 73.7329°W)
Time: 18:13:56
(UTC+00:00)

Vanguard 1 - Pass Details

Date: 25 February 2026
Orbit: 653 x 3818 km, 34.2° (Epoch: 5 March)

Event Time Altitude Azimuth Distance (km) Brightness Sun altitude
Rises 02:17:54 0° 275° (W) 6,631 15.0 -39.9°
Reaches altitude 10° 02:24:02 10° 260° (W) 6,102 14.5 -40.9°
Maximum altitude 02:35:50 19° 223° (SW) 5,955 14.0 -42.7°
Drops below altitude 10° 02:49:15 10° 187° (S) 6,900 14.1 -44.7°
Enters shadow 02:50:23 - 185° (S) 7,013 14.1 -44.8°
Sets 02:57:17 0° 172° (S) 7,760 - -45.8°
